Welcome to the New NWS' Forecast!
Most changes are behind the scenes, but click here for differences you might notice.

Regional Weather Roundup (RWR)

Issued by National Weather Service (NWS)

                            
625 
ASUS46 KSEW 191310
RWRWA 

WASHINGTON REGIONAL WEATHER ROUNDUP
NATIONAL WEATHER SERVICE SEATTLE WA
600 AM PDT THU JUL 19 2018

NOTE:"FAIR" INDICATES FEW OR NO CLOUDS BELOW 12,000 FEET WITH NO 
SIGNIFICANT WEATHER AND/OR OBSTRUCTIONS TO VISIBILITY.

WAZ507-509-555>559-191400-
SEATTLE, TACOMA, EVERETT, AND VICINITY
  
CITY           SKY/WX    TMP DP  RH WIND       PRES   REMARKS
EVERETT        CLOUDY    57  51  80 SE3       30.16S                  
BOEING FIELD   MOCLDY    57  50  77 SE7       30.16S                  
RENTON         CLOUDY    59  50  72 S5        30.16S                  
SEATAC AIRPORT CLOUDY    56  50  80 S6        30.16S                  
JBLM-MCCHORD   CLOUDY    55  55 100 SW6       30.16S                  
PUYALLUP       CLOUDY    55  52  88 S3        30.17S                  
BREMERTON      CLOUDY    55  52  89 CALM      30.16S                  
JBLM-FT LEWIS  NOT AVBL                                               
TACOMA NARROWS CLOUDY    54  50  86 S3        30.17R                  
$$
 
WAZ001-503-506-510-514-515-191400-
NORTH INTERIOR
  
CITY           SKY/WX    TMP DP  RH WIND       PRES   REMARKS
BELLINGHAM     PTCLDY    59  50  72 SE6       30.12R                  
FRIDAY HARBOR  MOCLDY    50  47  89 CALM      30.13S                  
EASTSOUND      PTCLDY    55  52  88 S7        30.11S                  
PORT ANGELES   CLOUDY    53  52  96 W7        30.16S                  
EDIZ HOOK      CLOUDY    53  51  92 W9        30.15S                  
PORT TOWNSEND  CLOUDY    59  54  82 CALM      30.15F                  
NAS WHIDBEY    MOCLDY    59  52  77 S8        30.18S                  
ARLINGTON      CLOUDY    57  52  83 NW3       30.16S                  
BURLINGTON     CLOUDY    57  52  82 S6        30.15S                  
$$
 
WAZ020-022-039-040-504-511-512-191400-
SOUTHWEST INTERIOR
  
CITY           SKY/WX    TMP DP  RH WIND       PRES   REMARKS
SHELTON        CLOUDY    55  51  86 SW5       30.14R                  
OLYMPIA        CLOUDY    54  51  90 W3        30.16R                  
CHEHALIS       CLOUDY    57  54  88 S5        30.17S                  
KELSO          CLOUDY    58  51  78 CALM      30.19S                  
VANCOUVER      CLOUDY    60  51  72 VRB3      30.18R                  
SCAPPOOSE, OR  CLOUDY    59  50  72 VRB5      30.17R                  
PORTLAND, OR   MOCLDY    60  50  69 NW7       30.18R                  
$$
 
WAZ021-516-517-191400-
WASHINGTON COAST
  
CITY           SKY/WX    TMP DP  RH WIND       PRES   REMARKS
FORKS          CLOUDY    54  51  90 W3        30.17S                  
HOQUIAM        CLEAR     56  53  90 W8        30.19R                  
ASTORIA, OR    CLOUDY    59  54  83 NW12      30.20R                  
$$
 
WAZ019-023-024-040-567>569-191400-
CASCADE MOUNTAINS AND COLUMBIA GORGE
  
CITY           SKY/WX    TMP DP  RH WIND       PRES   REMARKS
STAMPEDE PASS  FOG       49  49 100 W6        30.15F VSB<1/4          
TROUTDALE, OR  CLOUDY    61  51  70 CALM      30.18R                  
HOOD RIVER, OR SUNNY     59  52  77 W7G17     30.09R                  
THE DALLES, OR CLEAR     65  53  65 NW17G25   30.04S                  
$$

WAZ026-027-041>044-520-521-191400-
EAST SLOPES
  
CITY           SKY/WX    TMP DP  RH WIND       PRES   REMARKS
OMAK           CLEAR     65  46  50 NW12      29.95S                  
WENATCHEE      CLEAR     66  50  56 NW6       29.99R                  
ELLENSBURG     CLEAR     62  49  62 NW18      30.02S                  
YAKIMA         CLEAR     58  49  72 CALM      30.01S                  
SUNNYSIDE ARPT SUNNY     54  49  85 CALM      30.00S                  
YAKIMA TC      NOT AVBL                                               
$$

WAZ028-034-035-191400-
COLUMBIA BASIN
  
CITY           SKY/WX    TMP DP  RH WIND       PRES   REMARKS
EPHRATA        CLEAR     68  47  46 NW7       29.97R                  
MOSES LAKE     CLEAR     64  51  62 SW10      29.98R                  
PASCO          CLEAR     62  54  74 SW3       29.98S                  
RICHLAND ARPT  SUNNY     67  55  65 S6        29.98S                  
HERMISTON, OR  CLEAR     71  51  49 SW10      30.01R                  
$$

WAZ036>038-191400-
NORTHEAST WASHINGTON
  
CITY           SKY/WX    TMP DP  RH WIND       PRES   REMARKS
SPOKANE GEIGER PTCLDY    59  49  69 S9        30.02R                  
SPOKANE FELTS  CLEAR     68  48  48 S8        30.02R                  
FAIRCHILD AFB  NOT AVBL                                               
COEURDALENE,ID CLEAR     63  51  65 S7        30.04R                  
DEER PARK      CLEAR     60  48  64 S8        30.02R                  
$$

WAZ029>033-191400-
SOUTHEAST WASHINGTON
  
CITY           SKY/WX    TMP DP  RH WIND       PRES   REMARKS
PULLMAN        CLEAR     53  47  79 CALM      30.08R                  
LEWISTON, ID   CLEAR     63  41  44 CALM      30.02R                  
WALLA WALLA    CLEAR     69  45  41 S10       30.03R                  
PENDLETON, OR  CLEAR     63  42  46 S7        30.05R                  
$$